| time (UTC) | temp C | wind direction | speed KPH | gust KPH | rain 1hr cm | rain 24hr cm | rain mn cm | humidity % | barometer mb |
| 20260504234859 | 25 | 184 | 1.6 | 16.1 | 0.00 | 0.00 | 0.00 | 41 | 1009.3 |
| 20260504234359 | 25 | 173 | 1.6 | 19.3 | 0.00 | 0.00 | 0.00 | 41 | 1009.3 |
| 20260504233858 | 25 | 292 | 1.6 | 19.3 | 0.00 | 0.00 | 0.00 | 40 | 1009.2 |
| 20260504233358 | 25 | 225 | 4.8 | 16.1 | 0.00 | 0.00 | 0.00 | 40 | 1009.3 |
| 20260504232858 | 25 | 92 | 3.2 | 16.1 | 0.00 | 0.00 | 0.00 | 40 | 1009.4 |
| 20260504232357 | 25 | 306 | 6.4 | 16.1 | 0.00 | 0.00 | 0.00 | 39 | 1009.3 |
| 20260504231857 | 25 | 277 | 4.8 | 20.9 | 0.00 | 0.00 | 0.00 | 39 | 1009.3 |
| 20260504231356 | 25 | 251 | 4.8 | 20.9 | 0.00 | 0.00 | 0.00 | 39 | 1009.3 |
| 20260504230856 | 25 | 180 | 8.0 | 24.1 | 0.00 | 0.00 | 0.00 | 40 | 1009.4 |
| 20260504225855 | 25 | 74 | 4.8 | 24.1 | 0.00 | 0.00 | 0.00 | 38 | 1009.6 |
| 20260504225355 | 26 | 184 | 4.8 | 25.7 | 0.00 | 0.00 | 0.00 | 37 | 1009.6 |
| 20260504224854 | 26 | 234 | 24.1 | 25.7 | 0.00 | 0.00 | 0.00 | 37 | 1009.6 |
| 20260504224354 | 26 | 201 | 1.6 | 22.5 | 0.00 | 0.00 | 0.00 | 38 | 1009.5 |
| 20260504223854 | 26 | 227 | 9.7 | 25.7 | 0.00 | 0.00 | 0.00 | 37 | 1009.7 |
| 20260504223354 | 26 | 111 | 11.3 | 25.7 | 0.00 | 0.00 | 0.00 | 38 | 1009.6 |
| 20260504222854 | 26 | 179 | 8.0 | 24.1 | 0.00 | 0.00 | 0.00 | 38 | 1009.5 |
| 20260504222354 | 26 | 238 | 9.7 | 24.1 | 0.00 | 0.00 | 0.00 | 38 | 1009.5 |
| 20260504221854 | 26 | 216 | 9.7 | 22.5 | 0.00 | 0.00 | 0.00 | 38 | 1009.6 |
| 20260504221354 | 26 | 192 | 1.6 | 22.5 | 0.00 | 0.00 | 0.00 | 37 | 1009.5 |
| 20260504220354 | 26 | 324 | 1.6 | 20.9 | 0.00 | 0.00 | 0.00 | 38 | 1009.6 |
| 20260504214924 | 27 | 259 | 1.6 | 29.0 | 0.00 | 0.00 | 0.00 | 36 | 1009.5 |
| 20260504214424 | 27 | 221 | 14.5 | 29.0 | 0.00 | 0.00 | 0.00 | 35 | 1009.6 |
| 20260504213854 | 27 | 284 | 6.4 | 17.7 | 0.00 | 0.00 | 0.00 | 35 | 1009.7 |
| 20260504213354 | 27 | 160 | 3.2 | 20.9 | 0.00 | 0.00 | 0.00 | 37 | 1009.7 |
| 20260504212923 | 27 | 106 | 4.8 | 20.9 | 0.00 | 0.00 | 0.00 | 37 | 1009.6 |
| 20260504212423 | 27 | 225 | 4.8 | 19.3 | 0.00 | 0.00 | 0.00 | 36 | 1009.6 |
| 20260504211923 | 27 | 309 | 6.4 | 20.9 | 0.00 | 0.00 | 0.00 | 37 | 1009.6 |
| 20260504211423 | 27 | 201 | 9.7 | 20.9 | 0.00 | 0.00 | 0.00 | 36 | 1009.8 |
| 20260504210853 | 27 | 186 | 4.8 | 27.4 | 0.00 | 0.00 | 0.00 | 37 | 1009.8 |
| 20260504205923 | 27 | 256 | 8.0 | 27.4 | 0.00 | 0.00 | 0.00 | 39 | 1009.8 |
| 20260504204923 | 27 | 223 | 8.0 | 19.3 | 0.00 | 0.00 | 0.00 | 37 | 1010.0 |
| 20260504204422 | 27 | 195 | 14.5 | 19.3 | 0.00 | 0.00 | 0.00 | 36 | 1010.1 |
| 20260504203852 | 27 | 162 | 19.3 | 19.3 | 0.00 | 0.00 | 0.00 | 39 | 1010.3 |
| 20260504203351 | 28 | 271 | 12.9 | 22.5 | 0.00 | 0.00 | 0.00 | 37 | 1010.3 |
| 20260504202922 | 27 | 182 | 6.4 | 22.5 | 0.00 | 0.00 | 0.00 | 38 | 1010.4 |
| 20260504202351 | 28 | 200 | 9.7 | 17.7 | 0.00 | 0.00 | 0.00 | 40 | 1010.5 |
| 20260504201351 | 27 | 193 | 11.3 | 24.1 | 0.00 | 0.00 | 0.00 | 39 | 1010.8 |
| 20260504200921 | 27 | 246 | 3.2 | 24.1 | 0.00 | 0.00 | 0.00 | 38 | 1010.7 |
| 20260504200351 | 27 | 231 | 1.6 | 20.9 | 0.00 | 0.00 | 0.00 | 38 | 1010.8 |
| 20260504195921 | 27 | 212 | 4.8 | 29.0 | 0.00 | 0.00 | 0.00 | 39 | 1010.7 |
| 20260504195421 | 27 | 246 | 12.9 | 29.0 | 0.00 | 0.00 | 0.00 | 38 | 1010.9 |
| 20260504194421 | 28 | 178 | 11.3 | 19.3 | 0.00 | 0.00 | 0.00 | 37 | 1011.2 |
| 20260504193921 | 28 | 296 | 1.6 | 19.3 | 0.00 | 0.00 | 0.00 | 38 | 1011.1 |
| 20260504193351 | 27 | 172 | 11.3 | 32.2 | 0.00 | 0.00 | 0.00 | 36 | 1011.3 |
| 20260504192851 | 28 | 168 | 16.1 | 32.2 | 0.00 | 0.00 | 0.00 | 36 | 1011.5 |
| 20260504191920 | 27 | 200 | 14.5 | 33.8 | 0.00 | 0.00 | 0.00 | 37 | 1011.5 |
| 20260504191420 | 27 | 226 | 6.4 | 30.6 | 0.00 | 0.00 | 0.00 | 39 | 1011.7 |
| 20260504190921 | 28 | 219 | 12.9 | 24.1 | 0.00 | 0.00 | 0.00 | 40 | 1011.8 |
| 20260504190421 | 27 | 267 | 6.4 | 24.1 | 0.00 | 0.00 | 0.00 | 35 | 1011.8 |
| 20260504185921 | 27 | 205 | 1.6 | 22.5 | 0.00 | 0.00 | 0.00 | 37 | 1011.9 |
| 20260504185420 | 27 | 123 | 6.4 | 22.5 | 0.00 | 0.00 | 0.00 | 37 | 1012.0 |
| 20260504184921 | 27 | 167 | 9.7 | 24.1 | 0.00 | 0.00 | 0.00 | 38 | 1012.1 |
| 20260504184421 | 27 | 339 | 8.0 | 25.7 | 0.00 | 0.00 | 0.00 | 38 | 1011.9 |
| 20260504183921 | 27 | 190 | 8.0 | 25.7 | 0.00 | 0.00 | 0.00 | 37 | 1012.0 |
| 20260504183420 | 28 | 196 | 6.4 | 19.3 | 0.00 | 0.00 | 0.00 | 40 | 1012.2 |
| 20260504182921 | 27 | 192 | 6.4 | 14.5 | 0.00 | 0.00 | 0.00 | 40 | 1012.1 |
| 20260504182421 | 27 | 156 | 11.3 | 20.9 | 0.00 | 0.00 | 0.00 | 41 | 1012.0 |
| 20260504181921 | 27 | 198 | 14.5 | 20.9 | 0.00 | 0.00 | 0.00 | 40 | 1012.1 |
| 20260504181421 | 26 | 184 | 9.7 | 20.9 | 0.00 | 0.00 | 0.00 | 41 | 1012.2 |
| 20260504180921 | 26 | 312 | 6.4 | 19.3 | 0.00 | 0.00 | 0.00 | 41 | 1012.2 |
| 20260504180421 | 26 | 182 | 4.8 | 30.6 | 0.00 | 0.00 | 0.00 | 42 | 1012.4 |
| 20260504175920 | 26 | 250 | 1.6 | 30.6 | 0.00 | 0.00 | 0.00 | 41 | 1012.3 |
| 20260504175420 | 26 | 22 | 1.6 | 29.0 | 0.00 | 0.00 | 0.00 | 40 | 1012.4 |
| 20260504173918 | 27 | 201 | 6.4 | 24.1 | 0.00 | 0.00 | 0.00 | 40 | 1012.7 |
| 20260504173418 | 26 | 215 | 1.6 | 20.9 | 0.00 | 0.00 | 0.00 | 41 | 1012.6 |
| 20260504172918 | 26 | 284 | 17.7 | 20.9 | 0.00 | 0.00 | 0.00 | 41 | 1012.7 |
| 20260504172418 | 27 | 267 | 12.9 | 25.7 | 0.00 | 0.00 | 0.00 | 41 | 1012.9 |
| 20260504171417 | 26 | 136 | 6.4 | 16.1 | 0.00 | 0.00 | 0.00 | 45 | 1012.9 |
| 20260504170416 | 26 | 202 | 3.2 | 22.5 | 0.00 | 0.00 | 0.00 | 44 | 1013.0 |
| 20260504160415 | 25 | 208 | 6.4 | 14.5 | 0.00 | 0.00 | 0.00 | 52 | 1013.7 |
| 20260504150915 | 23 | 161 | 6.4 | 16.1 | 0.00 | 0.00 | 0.00 | 53 | 1014.3 |
| 20260504150415 | 23 | 238 | 12.9 | 16.1 | 0.00 | 0.00 | 0.00 | 54 | 1014.2 |
| 20260504140915 | 21 | 223 | 4.8 | 16.1 | 0.00 | 0.00 | 0.00 | 59 | 1014.3 |
| 20260504140415 | 22 | 202 | 4.8 | 12.9 | 0.00 | 0.00 | 0.00 | 60 | 1014.3 |
| 20260504130414 | 18 | 169 | 6.4 | 12.9 | 0.00 | 0.00 | 0.00 | 67 | 1013.9 |
| 20260504110404 | 16 | 167 | 4.8 | 11.3 | 0.00 | 0.00 | 0.00 | 71 | 1013.3 |
| 20260504100358 | 16 | 209 | 8.0 | 9.7 | 0.00 | 0.00 | 0.00 | 68 | 1013.6 |
| 20260504081919 | 16 | 155 | 3.2 | 8.0 | 0.00 | 0.00 | 0.00 | 66 | 1013.9 |
| 20260504080418 | 16 | 186 | 3.2 | 11.3 | 0.00 | 0.00 | 0.00 | 65 | 1014.0 |
| 20260504070412 | 16 | 182 | 3.2 | 9.7 | 0.00 | 0.00 | 0.00 | 63 | 1014.5 |
| 20260504050401 | 16 | 184 | 3.2 | 6.4 | 0.00 | 0.00 | 0.00 | 62 | 1015.5 |
| 20260504045901 | 16 | 188 | 3.2 | 6.4 | 0.00 | 0.00 | 0.00 | 62 | 1015.4 |
| 20260504045400 | 16 | 170 | 1.6 | 6.4 | 0.00 | 0.00 | 0.00 | 62 | 1015.4 |
| 20260504044900 | 16 | 182 | 3.2 | 6.4 | 0.00 | 0.00 | 0.00 | 62 | 1015.5 |
| 20260504044400 | 16 | 175 | 4.8 | 9.7 | 0.00 | 0.00 | 0.00 | 61 | 1015.5 |
| 20260504043859 | 16 | 184 | 4.8 | 9.7 | 0.00 | 0.00 | 0.00 | 61 | 1015.5 |
| 20260504043359 | 16 | 200 | 6.4 | 8.0 | 0.00 | 0.00 | 0.00 | 61 | 1015.6 |
| 20260504042858 | 16 | 171 | 3.2 | 6.4 | 0.00 | 0.00 | 0.00 | 61 | 1015.5 |
| 20260504042357 | 16 | 173 | 3.2 | 6.4 | 0.00 | 0.00 | 0.00 | 61 | 1015.5 |
| 20260504041857 | 16 | 160 | 3.2 | 4.8 | 0.00 | 0.00 | 0.00 | 61 | 1015.5 |
| 20260504041357 | 16 | 209 | 0.0 | 4.8 | 0.00 | 0.00 | 0.00 | 61 | 1015.5 |
| 20260504040856 | 16 | 200 | 0.0 | 0.0 | 0.00 | 0.00 | 0.00 | 61 | 1015.4 |
| 20260504040356 | 16 | 185 | 0.0 | 3.2 | 0.00 | 0.00 | 0.00 | 61 | 1015.5 |
| 20260504035355 | 16 | 194 | 1.6 | 8.0 | 0.00 | 0.00 | 0.00 | 61 | 1015.5 |
| 20260504034855 | 16 | 217 | 3.2 | 8.0 | 0.00 | 0.00 | 0.00 | 62 | 1015.5 |
| 20260504034354 | 16 | 179 | 0.0 | 3.2 | 0.00 | 0.00 | 0.00 | 61 | 1015.5 |
| 20260504033854 | 16 | 188 | 0.0 | 0.0 | 0.00 | 0.00 | 0.00 | 61 | 1015.5 |
| 20260504033423 | 16 | 188 | 0.0 | 0.0 | 0.00 | 0.00 | 0.00 | 60 | 1015.7 |
| 20260504032923 | 16 | 188 | 0.0 | 4.8 | 0.00 | 0.00 | 0.00 | 60 | 1015.7 |
| 20260504032423 | 16 | 188 | 0.0 | 4.8 | 0.00 | 0.00 | 0.00 | 61 | 1015.7 |
| 20260504031922 | 16 | 219 | 0.0 | 1.6 | 0.00 | 0.00 | 0.00 | 60 | 1015.8 |
| 20260504025420 | 15 | 219 | 0.0 | 0.0 | 0.00 | 0.00 | 0.00 | 61 | 1015.9 |
| 20260504024419 | 16 | 219 | 0.0 | 0.0 | 0.00 | 0.00 | 0.00 | 60 | 1015.7 |
| 20260504023918 | 16 | 219 | 0.0 | 0.0 | 0.00 | 0.00 | 0.00 | 60 | 1015.7 |
| 20260504022918 | 16 | 219 | 0.0 | 0.0 | 0.00 | 0.00 | 0.00 | 60 | 1015.6 |
| 20260504022417 | 16 | 219 | 0.0 | 0.0 | 0.00 | 0.00 | 0.00 | 61 | 1015.6 |
| 20260504021916 | 16 | 219 | 0.0 | 0.0 | 0.00 | 0.00 | 0.00 | 60 | 1015.7 |
| 20260504021416 | 16 | 219 | 0.0 | 0.0 | 0.00 | 0.00 | 0.00 | 60 | 1015.7 |
| 20260504020414 | 17 | 219 | 0.0 | 0.0 | 0.00 | 0.00 | 0.00 | 57 | 1015.6 |
| 20260504015915 | 17 | 219 | 0.0 | 0.0 | 0.00 | 0.00 | 0.00 | 58 | 1015.6 |
| 20260504015414 | 17 | 219 | 0.0 | 0.0 | 0.00 | 0.00 | 0.00 | 57 | 1015.4 |
| 20260504014913 | 17 | 219 | 0.0 | 0.0 | 0.00 | 0.00 | 0.00 | 57 | 1015.4 |
| 20260504014413 | 17 | 219 | 0.0 | 0.0 | 0.00 | 0.00 | 0.00 | 59 | 1015.3 |
| 20260504013912 | 17 | 219 | 0.0 | 0.0 | 0.00 | 0.00 | 0.00 | 58 | 1015.3 |
| 20260504013412 | 17 | 219 | 0.0 | 0.0 | 0.00 | 0.00 | 0.00 | 56 | 1015.2 |
| 20260504012911 | 18 | 219 | 0.0 | 0.0 | 0.00 | 0.00 | 0.00 | 55 | 1015.3 |
| 20260504012411 | 18 | 219 | 0.0 | 0.0 | 0.00 | 0.00 | 0.00 | 51 | 1015.2 |
| 20260504011911 | 18 | 219 | 0.0 | 0.0 | 0.00 | 0.00 | 0.00 | 49 | 1015.4 |
| 20260504011410 | 18 | 219 | 0.0 | 0.0 | 0.00 | 0.00 | 0.00 | 48 | 1015.3 |
| 20260504010910 | 19 | 219 | 0.0 | 1.6 | 0.00 | 0.00 | 0.00 | 47 | 1015.2 |
| 20260504010409 | 20 | 219 | 0.0 | 3.2 | 0.00 | 0.00 | 0.00 | 45 | 1015.3 |
| 20260504005909 | 20 | 219 | 1.6 | 4.8 | 0.00 | 0.00 | 0.00 | 45 | 1015.3 |
| 20260504005409 | 20 | 197 | 0.0 | 4.8 | 0.00 | 0.00 | 0.00 | 44 | 1015.3 |
| 20260504004908 | 20 | 215 | 0.0 | 3.2 | 0.00 | 0.00 | 0.00 | 43 | 1015.3 |
| 20260504004408 | 20 | 184 | 0.0 | 3.2 | 0.00 | 0.00 | 0.00 | 43 | 1015.3 |
| 20260504003907 | 21 | 184 | 0.0 | 3.2 | 0.00 | 0.00 | 0.00 | 42 | 1015.3 |
| 20260504002906 | 21 | 198 | 1.6 | 8.0 | 0.00 | 0.00 | 0.00 | 41 | 1015.2 |
| 20260504002406 | 21 | 188 | 0.0 | 9.7 | 0.00 | 0.00 | 0.00 | 41 | 1015.4 |
| 20260504001905 | 21 | 242 | 0.0 | 9.7 | 0.00 | 0.00 | 0.00 | 40 | 1015.3 |
| 20260504000404 | 21 | 249 | 3.2 | 9.7 | 0.00 | 0.00 | 0.00 | 39 | 1015.3 |
| 20260503235903 | 22 | 175 | 3.2 | 9.7 | 0.00 | 0.00 | 0.00 | 39 | 1015.4 |